STARLINK-3051, 49157

Orbit data source: Space-Track

STARLINK-3051, 49157 is a payload satellite owned by SpaceX/Seattle (US) in LEO that was launched on Tue, 14 Sep 2021 UTC via an FALCON 9 launch vehicle from the Air Force Western Test Range (AFWTR). Payload-class satellites include a variety of spacecraft equipped with specific instruments for various scientific and technological missions. These include communications satellites like Starlink; space stations such as the ISS; scientific satellites like the Hubble; Earth observation satellites from companies like Planet Labs, Umbra, and HawkEye 360; GPS; miniature CubeSats for education and research; and military/defense satellites.

Loading next visibility...
Identifier
49157, 2021-082AD
Orbit
LEO
Country
Flag of USUS
Related business
Manufacturer
SpaceX/Seattle
Mission
Operational Commercial Communications
Bus & Motor
STARLINK, Unknown motor
Mass
297 kg wet, ~275 kg dry
Launch date (UTC)
2021-09-14 (4 years ago)
Launch vehicle
FALCON 9
Launch site
Air Force Western Test Range (AFWTR)
Object type
Payload
Rocket body
Debris
Shape & HBR
Box + 1 Pan, 10.1 m
Radar Cross Section
13.562 m², Large (>1 m²)

Expand to show TLE details & history
Last TLE update: 7 hours ago

TLE from 7 hours ago
0 STARLINK-3051
1 49157U 21082AD  25310.76093209  .00013260  00000-0  10415-2 0  9991
2 49157  70.0015 224.0653 0002035 271.6292  88.4635 15.01026614229162
Epoch: 2025-11-06T18:15Z
TLE epoch observation values (Epoch: 2025-11-06T18:15:44.532Z)
Latitude
-0.00006°
Longitude
-96.08489°
Altitude
566.119 km
Speed
7.578 km/s
True Right ascension
14h 56m 15s
True Declination
0° 00' 00"
Sunlit
Object was in daylight at epoch
Visualization orbit readout
Latitude
Unknown
Longitude
Unknown
Altitude
Unknown
Speed
Unknown
Apparent Right ascension
Unknown
Apparent Declination
Unknown
Sunlit
N/A
Visualization observer readout
Local Sidereal Time
21:24:54
Azimuth
Unknown
Elevation
Unknown
Doppler factor
Unknown
Orbital elements
Apogee altitude
563.087 km
Perigee altitude
560.263 km
Semi-major axis
6,939.812 km
Eccentricity
0.0002
Inclination
70.0015°
RAAN
224.0653°
Arg. of periapsis
271.6292°
True anomaly
88.48681°
Mean anomaly
88.4635°
Eccentric anomaly
88.47516°
Mean motion
3.75424 °/min
Orbital period
95.89 mins
BSTAR
0.0010415
Loading maneuver chart data...
Computing Atmospheric mass density...

Documentation

Showing up to 5 results
|